N9CQL Weather Reports


Display with metric or nautical units.
time (UTC)temp
F
wind
direction
speed
MPH
gust
MPH
rain 1hr
in
rain 24hr
in
rain mn
in
humidity
%
barometer
mb
20260906110908 70 16 0.0 0.0 0.00 0.00 0.00 91 1016.9
20260906110404 70 16 0.0 0.0 0.00 0.00 0.00 91 1016.8
20260906105903 70 22 0.0 0.0 0.00 0.00 0.00 92 1016.8
20260906105359 70 23 0.0 0.0 0.00 0.00 0.00 92 1016.9
20260906104854 69 23 0.0 0.0 0.00 0.00 0.00 92 1016.2
20260906104353 69 23 0.0 0.0 0.00 0.00 0.00 91 1016.4
20260906103852 70 23 0.0 0.0 0.00 0.00 0.00 91 1016.5
20260906103350 70 23 0.0 0.0 0.00 0.00 0.00 91 1016.4
20260906102846 70 23 0.0 0.0 0.00 0.00 0.00 91 1016.5
20260906102345 70 23 0.0 0.0 0.00 0.00 0.00 91 1016.3
20260906101840 70 23 0.0 0.0 0.00 0.00 0.00 90 1016.4
20260906101335 70 23 0.0 0.0 0.00 0.00 0.00 90 1016.2
20260906100831 70 23 0.0 0.0 0.00 0.00 0.00 90 1016.3
20260906100330 70 23 0.0 0.0 0.00 0.00 0.00 90 1016.3
20260906095825 71 23 0.0 0.0 0.00 0.00 0.00 90 1016.3
20260906095321 71 23 0.0 0.0 0.00 0.00 0.00 89 1016.2
20260906094820 71 23 0.0 0.0 0.00 0.00 0.00 89 1016.3
20260906094315 71 23 0.0 0.0 0.00 0.00 0.00 89 1016.1
20260906093812 71 23 0.0 0.0 0.00 0.00 0.00 89 1016.1
20260906093307 71 23 0.0 0.0 0.00 0.00 0.00 89 1016.2
20260906092801 72 23 0.0 0.0 0.00 0.00 0.00 88 1016.3
20260906092256 72 23 0.0 0.0 0.00 0.00 0.00 88 1016.3
20260906091752 72 23 0.0 0.0 0.00 0.00 0.00 88 1016.1
20260906091248 72 23 0.0 0.0 0.00 0.00 0.00 88 1016.0
20260906090744 72 23 0.0 0.0 0.00 0.00 0.00 88 1016.1
20260906090243 72 23 0.0 0.0 0.00 0.00 0.00 88 1016.2
20260906085742 72 24 0.0 0.0 0.00 0.00 0.00 88 1016.1
20260906085242 72 23 0.0 0.0 0.00 0.00 0.00 88 1016.1
20260906084736 72 23 0.0 0.0 0.00 0.00 0.00 88 1016.1
20260906084231 72 23 0.0 0.0 0.00 0.00 0.00 88 1016.2
20260906083726 72 22 0.0 0.0 0.00 0.00 0.00 87 1016.2
20260906083221 72 36 0.0 0.0 0.00 0.00 0.00 87 1016.1
20260906082716 72 36 0.0 0.0 0.00 0.00 0.00 87 1015.9
20260906082211 72 35 0.0 0.0 0.00 0.00 0.00 87 1016.2
20260906081708 73 55 0.0 0.0 0.00 0.00 0.00 87 1015.9
20260906081202 73 54 0.0 0.0 0.00 0.00 0.00 86 1016.2
20260906080659 73 52 0.0 0.0 0.00 0.00 0.00 86 1016.2
20260906080155 73 52 0.0 0.0 0.00 0.00 0.00 86 1016.4
20260906075654 73 70 0.0 0.0 0.00 0.00 0.00 86 1016.2
20260906075149 73 88 0.0 0.0 0.00 0.00 0.00 85 1016.4
20260906074644 73 56 0.0 0.0 0.00 0.00 0.00 85 1016.3
20260906074143 73 8 0.0 0.0 0.00 0.00 0.00 85 1016.3
20260906073638 73 97 0.0 0.0 0.00 0.00 0.00 86 1016.1
20260906073134 73 10 0.0 0.0 0.00 0.00 0.00 85 1016.0
20260906072629 73 0 2.0 2.0 0.00 0.00 0.00 86 1016.0
20260906072124 73 56 0.0 1.0 0.00 0.00 0.00 86 1016.1
20260906071621 73 258 0.0 0.0 0.00 0.00 0.00 86 1016.4
20260906071115 73 52 0.0 1.0 0.00 0.00 0.00 86 1016.4
20260906070612 73 4 1.0 1.0 0.00 0.00 0.00 87 1016.4
20260906070107 73 57 0.0 0.0 0.00 0.00 0.00 88 1016.5
20260906065606 73 60 0.0 0.0 0.00 0.00 0.00 88 1016.3
20260906065102 73 47 0.0 0.0 0.00 0.00 0.00 88 1016.3
20260906064558 73 47 0.0 0.0 0.00 0.00 0.00 87 1016.3
20260906064052 73 74 0.0 0.0 0.00 0.00 0.00 87 1016.2
20260906063548 73 40 0.0 0.0 0.00 0.00 0.00 87 1016.2
20260906063044 73 22 0.0 0.0 0.00 0.00 0.00 87 1016.0
20260906062539 73 43 0.0 0.0 0.00 0.00 0.00 88 1016.4
20260906062033 73 70 0.0 0.0 0.00 0.00 0.00 87 1016.1
20260906061529 73 99 0.0 1.0 0.00 0.00 0.00 87 1016.3
20260906061028 73 33 0.0 0.0 0.00 0.00 0.00 88 1016.5
20260906060525 73 28 0.0 0.0 0.00 0.00 0.00 88 1016.5
20260906060022 73 28 0.0 0.0 0.00 0.00 0.00 88 1016.4
20260906055518 73 10 0.0 1.0 0.00 0.00 0.00 88 1016.4
20260906055013 73 36 0.0 0.0 0.00 0.00 0.00 88 1016.3
20260906054507 73 46 0.0 0.0 0.00 0.00 0.00 88 1016.3
20260906054003 73 34 0.0 0.0 0.00 0.00 0.00 87 1016.3
20260906053459 73 54 0.0 0.0 0.00 0.00 0.00 87 1016.3
20260906052954 73 353 1.0 2.0 0.00 0.00 0.00 87 1016.1
20260906052450 73 355 2.0 2.0 0.00 0.00 0.00 88 1015.8
20260906051947 73 22 0.0 0.0 0.00 0.00 0.00 88 1015.9
20260906051442 73 47 0.0 0.0 0.00 0.00 0.00 88 1015.9
20260906050937 73 33 0.0 1.0 0.00 0.00 0.00 87 1015.9
20260906050437 73 321 2.0 2.0 0.00 0.00 0.00 87 1015.9
20260906045936 73 355 0.0 0.0 0.00 0.00 0.00 88 1016.0
20260906045435 73 34 0.0 0.0 0.00 0.00 0.00 88 1016.0
20260906044932 73 37 0.0 0.0 0.00 0.00 0.00 87 1015.7
20260906044426 73 357 2.0 2.0 0.00 0.00 0.00 87 1015.6
20260906043921 73 24 0.0 0.0 0.00 0.00 0.00 87 1015.8
20260906043417 73 324 2.0 2.0 0.00 0.00 0.00 87 1015.7
20260906042913 73 75 0.0 0.0 0.00 0.00 0.00 87 1015.4
20260906042412 73 128 0.0 1.0 0.00 0.00 0.00 87 1015.3
20260906041907 73 98 0.0 0.0 0.00 0.00 0.00 87 1015.4
20260906041403 73 93 0.0 0.0 0.00 0.00 0.00 87 1015.3
20260906040857 73 59 0.0 0.0 0.00 0.00 0.00 87 1015.3
20260906040352 73 153 1.0 1.0 0.00 0.00 0.00 87 1015.3
20260906035848 73 118 1.0 1.0 0.00 0.00 0.00 87 1015.3
20260906035343 73 23 0.0 0.0 0.00 0.00 0.00 87 1015.2
20260906034838 73 49 0.0 0.0 0.00 0.00 0.00 87 1015.3
20260906034333 73 25 0.0 0.0 0.00 0.00 0.00 87 1014.9
20260906033829 73 325 3.0 5.0 0.00 0.00 0.00 87 1015.0
20260906033328 73 7 3.0 3.0 0.00 0.00 0.00 87 1015.2
20260906032825 74 13 3.0 5.0 0.00 0.00 0.00 87 1015.2
20260906032320 74 7 1.0 2.0 0.00 0.00 0.00 87 1015.2
20260906031815 74 19 0.0 1.0 0.00 0.00 0.00 87 1015.3
20260906031311 74 35 0.0 0.0 0.00 0.00 0.00 87 1015.2
20260906030810 74 25 0.0 0.0 0.00 0.00 0.00 86 1015.4
20260906030305 74 20 0.0 1.0 0.00 0.00 0.00 86 1015.4
20260906025804 74 85 0.0 0.0 0.00 0.00 0.00 86 1015.2
20260906025259 74 354 1.0 1.0 0.00 0.00 0.00 86 1015.4
20260906024758 74 99 0.0 0.0 0.00 0.00 0.00 86 1015.2
20260906024252 74 51 2.0 2.0 0.00 0.00 0.00 86 1015.3
20260906023748 74 305 1.0 2.0 0.00 0.00 0.00 86 1015.1
20260906023243 74 320 0.0 0.0 0.00 0.00 0.00 86 1015.0
20260906022738 74 46 0.0 0.0 0.00 0.00 0.00 86 1015.0
20260906022233 74 30 0.0 0.0 0.00 0.00 0.00 86 1015.0
20260906021730 74 25 1.0 1.0 0.00 0.00 0.00 86 1015.3
20260906021228 74 122 0.0 0.0 0.00 0.00 0.00 86 1015.2
20260906020723 74 219 1.0 2.0 0.00 0.00 0.00 86 1015.1
20260906020217 74 347 4.0 7.0 0.00 0.00 0.00 86 1015.1
20260906015712 74 201 2.0 3.0 0.00 0.00 0.00 86 1015.4
20260906015211 73 312 2.0 2.0 0.00 0.00 0.00 86 1015.3
20260906014711 73 191 2.0 2.0 0.00 0.00 0.00 86 1015.2
20260906014207 74 49 0.0 1.0 0.00 0.00 0.00 86 1015.4
20260906013703 74 311 2.0 3.0 0.00 0.00 0.00 86 1015.4
20260906013157 73 26 0.0 0.0 0.00 0.00 0.00 87 1015.1
20260906012658 74 20 1.0 1.0 0.00 0.00 0.00 86 1015.2
20260906012152 73 14 0.0 1.0 0.00 0.00 0.00 87 1015.3
20260906011648 73 301 2.0 6.0 0.00 0.00 0.00 87 1015.2
20260906011142 73 273 3.0 5.0 0.00 0.00 0.00 87 1015.0
20260906010638 73 71 0.0 0.0 0.00 0.00 0.00 87 1015.0
20260906010134 73 31 1.0 2.0 0.00 0.00 0.00 87 1015.2
20260906005633 73 11 0.0 0.0 0.00 0.00 0.00 87 1015.0
20260906005133 73 0 0.0 2.0 0.00 0.00 0.00 87 1014.9
20260906004632 73 20 3.0 3.0 0.00 0.00 0.00 87 1014.7
20260906004127 73 35 2.0 5.0 0.00 0.00 0.00 87 1014.6
20260906003622 73 104 1.0 2.0 0.00 0.00 0.00 87 1014.7
20260906003118 73 35 1.0 2.0 0.00 0.00 0.00 86 1014.7
20260906002613 73 32 0.0 0.0 0.00 0.00 0.00 86 1014.6
20260906002108 73 32 0.0 1.0 0.00 0.00 0.00 86 1014.8
20260906001603 73 16 2.0 2.0 0.00 0.00 0.00 86 1014.4
20260906001057 73 353 2.0 2.0 0.00 0.00 0.00 86 1014.5
20260906000553 74 3 1.0 2.0 0.00 0.00 0.00 86 1014.7
20260906000048 74 358 2.0 3.0 0.00 0.00 0.00 86 1014.6
20260905235547 74 317 3.0 6.0 0.00 0.00 0.00 86 1014.5
20260905235042 74 10 5.0 7.0 0.00 0.00 0.00 86 1014.5
20260905234538 74 35 1.0 1.0 0.00 0.00 0.00 86 1014.5
20260905234033 74 2 2.0 2.0 0.00 0.00 0.00 86 1014.5
20260905233533 75 3 3.0 6.0 0.00 0.00 0.00 86 1014.6
20260905233033 75 298 2.0 3.0 0.00 0.00 0.00 86 1014.5
20260905232528 75 359 1.0 1.0 0.00 0.00 0.00 86 1014.4
20260905232024 76 39 2.0 3.0 0.00 0.00 0.00 85 1014.3
20260905231519 76 3 3.0 3.0 0.00 0.00 0.00 84 1014.2
20260905231015 76 291 5.0 7.0 0.00 0.00 0.00 84 1014.2
20260905230514 76 235 3.0 3.0 0.00 0.00 0.00 84 1014.4
20260905230013 77 33 1.0 2.0 0.00 0.00 0.00 83 1014.1
20260905225507 77 328 5.0 7.0 0.00 0.00 0.00 83 1014.3
20260905225003 77 342 3.0 5.0 0.00 0.00 0.00 82 1014.2
20260905224458 78 305 1.0 3.0 0.00 0.00 0.00 81 1013.7
20260905223957 78 299 3.0 7.0 0.00 0.00 0.00 80 1013.9
20260905223455 79 323 4.0 5.0 0.00 0.00 0.00 79 1014.1
20260905222949 80 294 2.0 2.0 0.00 0.00 0.00 77 1014.0
20260905222444 80 127 1.0 1.0 0.00 0.00 0.00 78 1013.6
20260905221940 80 315 1.0 1.0 0.00 0.00 0.00 78 1014.0
20260905221436 80 322 0.0 2.0 0.00 0.00 0.00 77 1013.9
20260905220932 81 326 1.0 1.0 0.00 0.00 0.00 77 1013.9
20260905220428 82 5 1.0 1.0 0.00 0.00 0.00 75 1014.0
20260905215926 80 243 3.0 5.0 0.00 0.00 0.00 76 1014.0
20260905215422 80 7 1.0 1.0 0.00 0.00 0.00 77 1013.6
20260905214919 80 28 3.0 6.0 0.00 0.00 0.00 78 1014.0
20260905214414 81 359 1.0 2.0 0.00 0.00 0.00 77 1013.9
20260905213914 80 300 0.0 1.0 0.00 0.00 0.00 77 1013.6
20260905213410 81 6 0.0 1.0 0.00 0.00 0.00 76 1013.6
20260905212906 80 90 0.0 0.0 0.00 0.00 0.00 77 1013.6
20260905212401 80 8 1.0 2.0 0.00 0.00 0.00 76 1013.6
20260905211900 80 11 0.0 1.0 0.00 0.00 0.00 77 1013.5
20260905211355 80 18 4.0 5.0 0.00 0.00 0.00 75 1013.4
20260905210852 81 89 1.0 1.0 0.00 0.00 0.00 75 1013.6
20260905210351 80 33 2.0 2.0 0.00 0.00 0.00 76 1013.9
20260905205850 79 27 3.0 3.0 0.00 0.00 0.00 79 1013.6
20260905205345 79 323 3.0 3.0 0.00 0.00 0.00 79 1013.9
20260905204844 80 313 1.0 1.0 0.00 0.00 0.00 79 1013.7
20260905204341 80 346 0.0 0.0 0.00 0.00 0.00 79 1014.1
20260905203839 80 323 3.0 7.0 0.00 0.00 0.00 78 1013.7
20260905203335 80 357 5.0 7.0 0.00 0.00 0.00 78 1014.1
20260905202831 81 336 4.0 5.0 0.00 0.00 0.00 77 1013.7
20260905202325 80 21 0.0 1.0 0.00 0.00 0.00 77 1013.6
20260905201821 80 28 1.0 1.0 0.00 0.00 0.00 79 1013.6
20260905201316 81 13 4.0 6.0 0.00 0.00 0.00 77 1014.0
20260905200810 81 160 1.0 2.0 0.00 0.00 0.00 77 1013.9
20260905200307 81 36 0.0 0.0 0.00 0.00 0.00 77 1014.0
20260905195804 81 353 3.0 7.0 0.00 0.00 0.00 78 1013.7
20260905195259 81 273 2.0 2.0 0.00 0.00 0.00 78 1013.7
20260905194755 80 262 3.0 5.0 0.00 0.00 0.00 78 1013.9
20260905194254 80 4 0.0 1.0 0.00 0.00 0.00 79 1013.9
20260905193749 80 27 2.0 2.0 0.00 0.00 0.00 79 1014.2
20260905193244 80 8 4.0 5.0 0.00 0.00 0.00 79 1014.0
20260905192739 81 308 1.0 1.0 0.00 0.00 0.00 78 1014.2
20260905192235 82 352 3.0 3.0 0.00 0.00 0.00 77 1014.0
20260905191734 82 27 1.0 2.0 0.00 0.00 0.00 76 1014.0
20260905191233 81 25 1.0 2.0 0.00 0.00 0.00 78 1014.1
20260905190732 80 32 0.0 1.0 0.00 0.00 0.00 79 1014.1
20260905190231 81 6 2.0 5.0 0.00 0.00 0.00 78 1014.2
20260905185730 80 32 2.0 3.0 0.00 0.00 0.00 79 1014.2
20260905185225 82 20 1.0 2.0 0.00 0.00 0.00 78 1014.2
20260905184719 82 62 0.0 0.0 0.00 0.00 0.00 79 1014.0
20260905184218 81 56 1.0 1.0 0.00 0.00 0.00 79 1013.9
20260905183712 82 5 3.0 3.0 0.00 0.00 0.00 77 1014.3
20260905183207 84 32 2.0 3.0 0.00 0.00 0.00 75 1014.1
20260905182707 83 324 4.0 5.0 0.00 0.00 0.00 75 1014.1
20260905182207 83 257 0.0 2.0 0.00 0.00 0.00 75 1014.2
20260905181702 84 44 1.0 1.0 0.00 0.00 0.00 74 1014.3
20260905181201 84 323 1.0 2.0 0.00 0.00 0.00 73 1014.0
20260905180655 83 211 2.0 2.0 0.00 0.00 0.00 77 1014.2
20260905180151 83 303 3.0 5.0 0.00 0.00 0.00 76 1013.9
20260905175650 84 78 0.0 0.0 0.00 0.00 0.00 75 1013.9
20260905175146 83 38 1.0 1.0 0.00 0.00 0.00 75 1013.7
20260905174641 82 295 2.0 2.0 0.00 0.00 0.00 77 1014.1
20260905174137 84 49 1.0 1.0 0.00 0.00 0.00 76 1014.3
20260905173632 86 309 2.0 3.0 0.00 0.00 0.00 71 1014.1
20260905173128 87 291 3.0 5.0 0.00 0.00 0.00 70 1013.7
20260905172627 86 28 1.0 2.0 0.00 0.00 0.00 72 1014.1
20260905172122 85 102 0.0 0.0 0.00 0.00 0.00 74 1013.9
20260905171618 84 343 3.0 6.0 0.00 0.00 0.00 75 1014.0
20260905171114 84 26 2.0 2.0 0.00 0.00 0.00 75 1014.0
20260905170610 85 54 1.0 2.0 0.00 0.00 0.00 73 1014.1
20260905170105 84 8 1.0 1.0 0.00 0.00 0.00 76 1014.0
20260905165600 83 304 4.0 5.0 0.00 0.00 0.00 76 1014.0
20260905165055 83 198 4.0 5.0 0.00 0.00 0.00 77 1014.1
20260905164550 84 27 0.0 0.0 0.00 0.00 0.00 76 1014.1
20260905164044 84 328 5.0 6.0 0.00 0.00 0.00 75 1014.3
20260905163540 84 32 2.0 5.0 0.00 0.00 0.00 75 1014.3
20260905163036 84 20 0.0 0.0 0.00 0.00 0.00 75 1014.2
20260905162532 83 318 3.0 6.0 0.00 0.00 0.00 76 1014.1
20260905162027 84 347 2.0 3.0 0.00 0.00 0.00 75 1014.2
20260905161526 84 93 0.0 0.0 0.00 0.00 0.00 75 1014.1
20260905161024 83 90 2.0 2.0 0.00 0.00 0.00 76 1014.1
20260905160517 84 343 2.0 3.0 0.00 0.00 0.00 76 1014.1
20260905160018 83 11 2.0 3.0 0.00 0.00 0.00 77 1014.1
20260905155518 82 315 5.0 7.0 0.00 0.00 0.00 77 1014.1
20260905155016 82 122 1.0 2.0 0.00 0.00 0.00 77 1013.9
20260905154512 82 66 0.0 1.0 0.00 0.00 0.00 78 1013.9
20260905154007 82 24 1.0 2.0 0.00 0.00 0.00 78 1014.1
20260905153503 82 25 0.0 0.0 0.00 0.00 0.00 78 1014.0
20260905153003 81 0 0.0 0.0 0.00 0.00 0.00 79 1013.7
20260905152502 82 325 1.0 2.0 0.00 0.00 0.00 79 1013.9
20260905151957 81 55 0.0 0.0 0.00 0.00 0.00 80 1013.9
20260905151452 81 6 4.0 5.0 0.00 0.00 0.00 79 1013.7
20260905150947 81 347 2.0 2.0 0.00 0.00 0.00 79 1013.7
20260905150442 81 95 0.0 0.0 0.00 0.00 0.00 80 1013.6
20260905145938 80 3 4.0 6.0 0.00 0.00 0.00 80 1013.6
20260905145433 80 6 2.0 2.0 0.00 0.00 0.00 80 1013.9
20260905144933 80 235 0.0 1.0 0.00 0.00 0.00 81 1013.6
20260905144428 81 40 0.0 1.0 0.00 0.00 0.00 80 1013.5
20260905143927 81 61 0.0 0.0 0.00 0.00 0.00 81 1013.5
20260905143420 80 28 0.0 1.0 0.00 0.00 0.00 82 1013.5
20260905142915 80 356 0.0 0.0 0.00 0.00 0.00 82 1013.3
20260905142414 80 348 2.0 3.0 0.00 0.00 0.00 82 1013.4
20260905141910 79 22 1.0 1.0 0.00 0.00 0.00 83 1013.1
20260905141405 79 43 0.0 0.0 0.00 0.00 0.00 84 1013.1
20260905140901 79 311 3.0 5.0 0.00 0.00 0.00 85 1013.1
20260905140356 78 56 0.0 0.0 0.00 0.00 0.00 86 1013.1
20260905135854 78 45 0.0 0.0 0.00 0.00 0.00 87 1013.1
20260905135350 77 336 3.0 6.0 0.00 0.00 0.00 88 1013.3
20260905134846 77 17 0.0 0.0 0.00 0.00 0.00 89 1012.9
20260905134344 76 48 1.0 1.0 0.00 0.00 0.00 89 1013.4
20260905133838 76 47 3.0 5.0 0.00 0.00 0.00 90 1013.4
20260905133334 76 1 3.0 6.0 0.00 0.00 0.00 90 1013.4
20260905132833 76 280 3.0 6.0 0.00 0.00 0.00 91 1013.5
20260905132329 76 26 2.0 2.0 0.00 0.00 0.00 91 1013.5
20260905131822 76 28 3.0 3.0 0.00 0.00 0.00 91 1013.5
20260905131318 76 0 2.0 2.0 0.00 0.00 0.00 91 1013.1
20260905130813 75 6 2.0 3.0 0.00 0.00 0.00 91 1013.2
20260905130312 75 3 2.0 3.0 0.00 0.00 0.00 92 1013.2
20260905125808 75 356 0.0 0.0 0.00 0.00 0.00 92 1013.2
20260905125306 75 15 0.0 1.0 0.00 0.00 0.00 92 1012.8
20260905124759 75 23 0.0 0.0 0.00 0.00 0.00 92 1012.9
20260905124255 75 282 1.0 3.0 0.00 0.00 0.00 92 1012.7
20260905123750 75 8 1.0 2.0 0.00 0.00 0.00 92 1012.8
20260905123247 75 45 0.0 0.0 0.00 0.00 0.00 92 1012.7
20260905122746 75 74 2.0 2.0 0.00 0.00 0.00 92 1012.6
20260905122240 75 349 2.0 3.0 0.00 0.00 0.00 92 1012.8
20260905121736 75 11 0.0 1.0 0.00 0.00 0.00 92 1012.6
20260905121232 75 356 3.0 5.0 0.00 0.00 0.00 91 1012.5
20260905120730 75 18 0.0 0.0 0.00 0.00 0.00 91 1012.6
20260905120225 76 7 1.0 2.0 0.00 0.00 0.00 91 1012.6
20260905115720 76 35 0.0 0.0 0.00 0.00 0.00 91 1012.3
20260905115220 75 11 1.0 1.0 0.00 0.00 0.00 91 1012.2
20260905114715 76 29 0.0 1.0 0.00 0.00 0.00 91 1012.0
20260905114212 76 30 0.0 1.0 0.00 0.00 0.00 91 1012.0
20260905113707 76 28 0.0 0.0 0.00 0.00 0.00 91 1012.0
20260905113203 76 31 0.0 0.0 0.00 0.00 0.00 91 1011.9
20260905112702 76 27 0.0 0.0 0.00 0.00 0.00 91 1011.6
20260905112157 77 23 0.0 0.0 0.00 0.00 0.00 91 1011.6
20260905111652 77 22 0.0 0.0 0.00 0.00 0.00 91 1011.7
20260905111151 77 19 0.0 0.0 0.00 0.00 0.00 91 1011.4